Location: *
(50.6089°N, 2.2719°E)
Time: 01:36:09
(UTC+00:00)

ATLAS 5 CENTAUR R/B - Pass Details

Date: 18 October 2019
Orbit: 557 x 1102 km, 63.4° (Epoch: 11 November)

Event Time Altitude Azimuth Distance (km) Brightness Sun altitude
Rises 17:40:21 0° 231° (SW) 2,793 6.0 -8.2°
Reaches altitude 10° 17:42:29 10° 234° (SW) 1,937 5.1 -8.5°
Maximum altitude 17:46:48 67° 317° (NW) 703 2.0 -9.2°
Drops below altitude 10° 17:51:45 10° 41° (NE) 2,211 4.0 -10.0°
Enters shadow 17:53:16 - 43° (NE) 2,809 4.5 -10.2°
